Tracking 30070 objects as of 16-Jan-2025
HD Live streaming from Space Station
objects crossing your sky now

LANDSAT 2

Track LANDSAT 2 now!
10-day predictions
LANDSAT 2 is classified as:


NORAD ID: 7615
Int'l Code: 1975-004A
Perigee: 906.1 km
Apogee: 917.3 km
Inclination: 99.0 °
Period: 103.1 minutes
Semi major axis: 7282 km
RCS: 3.0869 m2 (large)
Launch date: January 22, 1975
Source: United States (US)
Launch site: AIR FORCE WESTERN TEST RANGE (AFWTR)
Your satellite tracking list
Your tracking list is empty




NASA's NSSDC Master Catalog

Two Line Element Set (TLE):
1 07615U 75004A   25015.89053124  .00000256  00000-0  21492-3 0  9994
2 07615  98.9664 336.8517 0007704 296.5907  63.4466 13.96894269546902
Source of the keplerian elements: AFSPC